Flag for U.S.A. Weather past 2 weeks in Youngstown, Ohio, U.S.A.

Now
67 °F

Cloudy.


Feels Like: 67 °F
Forecast: 67 / 83 °F
Wind: 9 mph from South

Location: Youngstown-Warren Regional Airport

Current Time: Aug 20, 2014 at 10:43:00 AM

Latest Report: Aug 20, 2014 at 9:51 AM


Visibility: 10 mi

Pressure: 29.90 "Hg

Humidity: 90%

Dew point: 64 °F

Location of YoungstownLocation

Historic Weather in Youngstown — Graph

°F

Youngstown temperature yesterday

Maximum temperature yesterday: 84 °F (at 3:51 PM)
Minimum temperature yesterday: 57 °F (at 5:51 AM)
Average temperature yesterday: 71 °F

Past Weeks' High & Low Weather Summary

 TemperatureHumidityPressure
High84 °F (Aug 19, 3:51 PM)100% (Aug 5, 10:51 PM)30.16 "Hg (Aug 5, 10:51 PM)
Low48 °F (Aug 15, 5:51 AM)37% (Aug 16, 3:51 PM)29.71 "Hg (Aug 12, 6:51 PM)
Average66 °F74%29.97 "Hg
* Reported Aug 5 8:51 AM — Aug 20 8:51 AM, Youngstown, Weather by CustomWeather, © 2014

Note: Actual official high and low records may vary slightly from our data, if they occured in-between our weather recording intervals... More about our weather records

Advertising

Youngstown weather history for previous 24 hours

 ConditionsComfort  
Time TempWeatherWind HumidityBarometerVisibility
8:51 AM
Aug 20
65 °FRain. Fog.10 mph94%29.90 "Hg3 mi
7:51 AM66 °FThunderstorms. Fog.10 mph90%29.90 "Hg2 mi
6:51 AM65 °FLight rain. Fog.7 mph94%29.88 "Hg5 mi
5:51 AM65 °FLight rain. Overcast.10 mph94%29.85 "Hg9 mi
4:51 AM65 °FThunderstorms. Mostly cloudy.10 mph94%29.85 "Hg10 mi
4:02 AM64 °FThunderstorms. Fog.8 mph94%29.90 "Hg5 mi
3:51 AM65 °FStrong thunderstorms. Fog.7 mph94%29.88 "Hg2 mi
2:51 AM65 °FThunderstorms. Mostly cloudy.7 mph94%29.84 "Hg10 mi
1:51 AM65 °FThunderstorms. Fog.8 mph94%29.87 "Hg6 mi
12:51 AM65 °FThunderstorms. Fog.5 mph94%29.89 "Hg5 mi
12:02 AM64 °FThunderstorms. Fog.No wind94%29.91 "Hg5 mi
11:51 PM
Aug 19
65 °FStrong thunderstorms. Fog.6 mph94%29.88 "Hg2 mi
10:51 PM70 °FThunderstorms. Mostly cloudy.15 mph79%29.88 "Hg10 mi
10:01 PM70 °FThunderstorms. Mostly cloudy.5 mph83%29.87 "Hg10 mi
8:51 PM70 °FPartly sunny.6 mph84%29.83 "Hg10 mi
7:51 PM77 °FScattered clouds.5 mph60%29.82 "Hg10 mi
6:51 PM81 °FScattered clouds.5 mph56%29.81 "Hg10 mi
5:51 PM83 °FScattered clouds.7 mph51%29.82 "Hg10 mi
4:51 PM83 °FScattered clouds.No wind48%29.82 "Hg10 mi
3:51 PM84 °FScattered clouds.8 mph45%29.82 "Hg10 mi
2:51 PM82 °FScattered clouds.3 mph48%29.83 "Hg10 mi
1:51 PM82 °FBroken clouds.5 mph37%29.85 "Hg10 mi
12:51 PM80 °FScattered clouds.6 mph45%29.85 "Hg10 mi
11:51 AM78 °FScattered clouds.5 mph52%29.86 "Hg10 mi
10:51 AM75 °FScattered clouds.3 mph58%29.87 "Hg10 mi
Weather by CustomWeather, © 2014

See weather overviewHow to use our weather pages